Regional Weather Roundup
Issued by NWS

Home | Current Version | Previous Version | Graphics & Text | Print | Product List | Glossary On
Versions: 1 2 3 4 5 6 7 8 9 10 11 12 13 14 15 16 17 18 19 20 21 22 23 24 25 26 27 28 29 30 31 32 33 34 35 36 37 38 39 40 41 42 43 44 45 46 47 48 49 50
000
ASUS45 KBOU 140310
RWRCO

WEATHER ROUNDUP FOR COLORADO
NATIONAL WEATHER SERVICE DENVER/BOULDER CO
900 PM MDT SUN JUL 13 2014

NOTE: "FAIR" INDICATES FEW OR NO CLOUDS BELOW 12000 FEET WITH NO
SIGNIFICANT WEATHER AND/OR OBSTRUCTIONS TO VISIBILITY.

COZ001>005-013-030-031-140400-
...NORTHWEST COLORADO...

CITY           SKY/WX    TMP DP  RH WIND       PRES   REMARKS
CRAIG          CLEAR     69  50  50 E6        30.25R
HAYDEN         CLEAR     73  45  35 E6        30.28R
MEEKER         CLEAR     73  45  36 NE9       30.24S
MOUNT WERNER   NOT AVBL
STEAMBOAT SPGS CLEAR     72  46  40 E3        30.31R
WALDEN         CLEAR     61  46  59 NE7       30.44R
$$

COZ006>008-011-140400-
...WEST CENTRAL VALLEYS...

CITY           SKY/WX    TMP DP  RH WIND       PRES   REMARKS
GRAND JUNCTION PTCLDY    88  40  18 N7        30.07R
MONTROSE       MOCLDY    82  48  30 SE7       30.18R
EAGLE          CLEAR     77  43  29 NE9       30.28R
RIFLE          PTCLDY    83  42  23 CALM      30.16R
DELTA          MOCLDY    87  47  25 N8        30.12R
NUCLA          MOCLDY    86  41  20 CALM      30.21R
$$

COZ017>023-064>068-140400-
...SOUTHWEST COLORADO...

CITY           SKY/WX    TMP DP  RH WIND       PRES   REMARKS
DURANGO        CLOUDY    69  54  58 SE16G22   30.31R
CORTEZ         CLEAR     76  56  49 CALM      30.18S
PAGOSA SPRINGS CLOUDY    60  54  78 E3        30.40S
TELLURIDE      MOCLDY    70  46  43 SE3       30.47R
WOLF CREEK PAS NOT AVBL
$$

COZ009-010-012-014-032>034-037-058>063-140400-
...CENTRAL COLORADO...

CITY           SKY/WX    TMP DP  RH WIND       PRES   REMARKS
ASPEN          MOCLDY    71  50  47 S6        30.36R
BUENA VISTA    MOCLDY    65  54  67 E3        30.44R
COPPER MTN     PTCLDY    59  34  38 W13       30.74S
BERTHOUD PASS  HAZE      43  30  61 E8        30.80R VSB<1/4
COTTONWOOD PAS MOCLDY    61  50  67 CALM      30.58R
GUNNISON       MOCLDY    70  46  43 E15       30.37S
KREMMLING      CLEAR     70  41  35 NW3       30.37R
LEADVILLE      PTCLDY    56  48  74 S12       30.55R
MONARCH PASS   CLOUDY    54  39  58 E5        30.82S
SALIDA         MOCLDY   N/A N/A N/A S6        30.47R
SUNLIGHT       MOCLDY    63  39  42 N6        30.65S
WILKERSON PASS CLOUDY    50  48  93 NE10G17   30.71R
$$

COZ069>075-140400-
...SAN LUIS VALLEY/SANGRE DE CRISTO MOUNTAINS...

CITY           SKY/WX    TMP DP  RH WIND       PRES   REMARKS
ALAMOSA        CLOUDY    69  51  52 SE9       30.36R
LA VETA PASS   CLOUDY    54  52  94 NE7       30.60R
SAGUACHE       NOT AVBL
$$

COZ035-036-038>040-140400-
...NORTHERN COLORADO FRONT RANGE...

CITY           SKY/WX    TMP DP  RH WIND       PRES   REMARKS
DENVER INTL AP CLOUDY    68  58  70 SE10      30.27S
DMNS CITY PARK   N/A     69  59  71 W3        30.27S
AURORA         MOCLDY    66  60  80 SE12      30.29F
FRONT RANGE AP NOT AVBL
ERIE MUNI ARPT MOCLDY    68  62  81 CALM      30.27R
BOULDER MUN AP MOCLDY    70  63  78 W5        30.27S
CENTENNIAL     MOCLDY    68  58  70 NE8       30.31R
BROOMFIELD     MOCLDY    72  57  60 W5        30.31R
FORT COLLINS   PTCLDY    70  59  68 CALM      30.26S
LONGMONT       PTCLDY    71  65  81 CALM      30.28R
$$

COZ041-046-047-076>085-087-088-140400-
...PIKES PEAK/PALMER DIVIDE AND SOUTHERN FOOTHILLS...

CITY           SKY/WX    TMP DP  RH WIND       PRES   REMARKS
COLO. SPRINGS  CLOUDY    71  60  68 SE6       30.32S
A. F. ACADEMY  MOCLDY    68  58  70 SE5       30.34S
ELLICOTT       NOT AVBL
FALCON         CLOUDY    66  58  76 S5        30.38S
FORT CARSON    CLOUDY    71  62  73 S6        30.29S
LIMON          MOCLDY    63  60  90 SE8       30.29R
MONUMENT HILL  MOCLDY    64  55  72 W3        30.38R
TRINIDAD       MOCLDY    74  59  59 W8        30.28R
$$

COZ042>045-048>051-090-091-140400-
...NORTHEAST COLORADO...

CITY           SKY/WX    TMP DP  RH WIND       PRES   REMARKS
GREELEY ARPT   NOT AVBL
AKRON          MOCLDY    65  60  84 S7        30.22S
BURLINGTON     CLOUDY    64  60  87 SE9       30.21R
WRAY             N/A     65  63  92 W7        30.17R
STERLING       MOCLDY    70  64  83 CALM      30.18R
HOLYOKE        PTCLDY    66  61  82 W6        30.16S
FORT MORGAN    MOCLDY    67  58  75 CALM      30.22F
$$

COZ086-089-092>099-140400-
...SOUTHEAST COLORADO...

CITY           SKY/WX    TMP DP  RH WIND       PRES   REMARKS
PUEBLO         MOCLDY    77  61  57 E8        30.21R
LA JUNTA       MOCLDY    74  66  76 E7        30.19R
LAMAR          MOCLDY    76  61  59 E9        30.17R
SPRINGFIELD      N/A     74  59  59 SE8       30.21R
$$


USA.gov is the U.S. government's official web portal to all federal, state and local government web resources and services.